Wind_Speed
5 4 4 4 3 3 3 3 3 3 3 2 2 3 3 3 3 2 3 3 2 2 1 1 1 0 1 2 2 3 3 3 4 5 6 6 6 6 6 6 7 7 7
4 4 4 4 3 2 2 2 2 3 3 3 3 3 3 2 2 2 2 2 1 1 1 1 1 1 1 2 3 3 4 4 4 5 6 6 6 6 7 6 7 7 8
5 4 4 3 3 2 1 1 2 2 2 2 2 3 2 2 2 3 2 2 1 1 2 1 2 2 2 2 3 4 4 5 5 6 6 7 7 7 7 7 8 8 8
5 5 4 3 3 2 1 1 1 1 1 1 2 2 3 3 3 3 3 2 2 2 2 2 2 2 2 3 3 4 5 5 6 6 6 7 7 8 8 8 8 9 9
6 5 4 4 2 2 1 1 1 2 1 1 1 2 3 3 3 4 4 4 3 3 3 3 2 2 3 3 4 4 5 5 6 7 7 7 8 8 9 9 8 9 10
7 6 5 3 3 2 1 1 1 1 1 1 1 2 2 3 4 4 4 4 4 3 3 3 2 2 3 3 4 4 5 5 6 6 7 7 8 9 9 9 8 9 10
7 6 5 4 4 2 1 1 1 1 1 1 1 2 2 3 4 4 4 4 4 3 3 3 3 3 3 3 4 4 5 5 6 6 7 8 9 10 10 9 8 9 10
7 6 6 5 4 3 2 0 0 0 1 1 1 2 3 4 4 4 4 4 4 3 3 3 3 3 3 3 4 4 5 6 6 6 7 8 8 9 10 10 9 9 10
7 7 6 6 5 4 3 1 0 0 0 1 1 2 3 4 4 4 4 4 4 3 4 4 3 3 3 3 3 4 5 6 7 7 7 7 8 8 10 10 10 10 11
7 7 6 6 5 3 3 2 1 1 1 1 2 2 3 3 4 4 4 4 4 4 4 4 3 3 4 4 4 4 5 6 7 7 7 8 8 9 10 11 11 11 11
8 7 7 7 5 4 3 2 2 2 1 1 2 2 3 3 4 4 4 4 4 4 4 3 3 4 4 4 4 4 4 5 6 7 7 8 8 10 11 11 12 11 12
8 8 8 7 6 5 4 3 2 2 2 2 2 2 2 3 4 4 4 4 4 4 4 4 4 4 4 4 4 5 5 5 6 7 7 8 8 9 11 12 12 12 12
8 9 8 7 6 5 4 3 3 2 3 2 2 2 2 3 4 4 4 5 5 4 4 4 4 4 5 5 5 5 6 6 6 6 7 8 8 9 10 11 12 12 12
9 9 9 8 6 5 4 3 2 2 2 2 2 2 2 3 3 4 4 4 5 5 5 5 5 5 5 5 5 5 5 6 6 6 7 7 8 9 10 11 12 12 12
10 9 9 8 7 6 5 3 2 1 1 1 1 1 2 2 3 4 4 4 4 5 5 5 5 5 5 5 5 5 4 5 5 5 6 7 8 8 9 10 11 12 13
10 10 8 8 7 6 5 3 3 2 1 1 1 1 2 2 2 3 4 4 5 5 5 5 5 5 5 5 5 4 4 4 4 4 5 6 7 8 8 9 10 11 12
10 9 9 8 7 6 5 4 3 2 2 2 2 1 1 1 2 3 3 4 5 5 5 5 5 5 5 5 5 4 4 4 3 4 5 5 6 6 7 8 9 10 11
10 9 8 8 7 7 6 5 4 3 3 2 2 1 1 1 1 2 3 4 5 5 5 5 5 5 5 5 5 4 3 3 3 4 4 5 5 6 7 8 9 9 10
10 9 8 7 7 7 7 6 5 4 3 2 2 1 1 1 1 2 3 4 4 5 5 5 5 5 5 5 5 4 3 3 3 4 4 5 5 5 6 7 9 9 10
10 9 9 8 7 7 7 6 6 5 4 3 2 1 1 1 1 2 3 3 4 5 5 5 5 5 5 5 5 4 4 4 4 4 4 4 5 5 5 6 8 9 10
9 8 9 8 7 7 7 7 6 5 4 4 3 2 2 1 1 2 2 3 4 4 5 5 5 5 5 5 5 4 4 4 4 4 4 4 4 5 5 6 8 9 10
9 8 8 8 8 7 7 7 6 5 5 4 3 3 3 2 2 2 3 3 4 4 4 5 5 5 5 5 5 5 5 4 4 4 4 4 4 5 6 6 7 8 10
9 9 8 8 8 8 7 7 6 5 5 5 4 4 3 3 3 3 3 3 4 4 4 4 5 5 5 5 4 5 5 4 4 4 4 4 5 6 7 7 7 9 10
9 9 9 8 8 8 8 7 7 6 6 5 5 4 4 3 3 3 3 3 4 4 5 4 5 4 4 5 4 4 5 5 5 5 4 5 5 6 7 8 9 9 10
9 9 10 9 8 8 8 8 8 7 7 6 6 5 4 4 4 3 3 4 4 4 5 4 4 4 4 5 5 5 5 5 5 5 5 6 7 7 8 9 10 10 11
10 10 9 9 9 9 9 9 8 8 7 7 6 6 5 4 4 4 4 4 4 5 5 5 5 5 4 4 5 5 5 5 6 6 7 7 8 8 9 10 10 11 12
Wind_Direction
147 143 131 120 112 106 102 93 117 122 115 108 95 85 91 100 96 78 65 57 61 61 61 73 84 75 231 227 228 230 234 234 230 223 218 219 220 221 219 217 216 219 213
150 150 140 125 110 103 111 103 100 113 110 105 94 82 79 83 83 59 35 33 38 27 15 356 325 307 265 243 241 240 240 236 239 228 222 224 225 223 222 221 217 222 215
158 154 147 136 132 129 137 134 121 112 111 97 77 76 71 57 53 34 23 13 357 337 331 310 295 300 279 255 250 247 245 240 237 230 226 226 226 226 226 225 223 220 211
166 165 158 151 147 139 133 101 120 141 146 107 75 71 56 46 36 22 8 354 339 326 315 301 288 293 278 262 259 252 248 245 238 235 233 228 227 228 229 228 225 218 210
176 173 170 172 167 163 152 104 147 167 170 128 80 65 49 35 25 12 2 351 337 326 311 302 293 289 279 269 265 255 250 248 241 239 238 232 230 229 229 230 227 214 208
190 185 182 181 183 186 154 109 105 151 132 90 56 35 28 18 14 9 356 352 341 325 317 310 296 282 277 266 261 254 252 248 240 243 241 235 233 232 232 233 228 215 211
192 192 193 194 197 195 166 123 110 105 91 58 27 18 9 9 6 356 350 351 345 332 325 312 297 277 269 265 262 258 252 248 244 244 240 238 237 236 234 229 221 218 216
198 202 202 207 209 204 203 123 224 72 45 19 13 9 12 8 4 1 355 353 354 342 331 323 309 288 280 279 274 263 256 250 249 247 243 242 241 233 231 228 225 223 219
199 201 207 213 215 217 216 223 216 154 279 1 12 354 358 4 7 3 357 351 350 341 328 322 317 302 295 289 281 274 264 255 252 249 247 245 240 231 227 227 227 224 222
195 199 207 209 214 220 227 235 268 284 253 294 335 339 349 357 2 4 2 353 345 334 326 318 312 306 301 294 283 276 269 263 256 252 250 246 242 236 232 229 228 227 224
200 204 207 211 215 219 223 237 261 269 260 281 319 339 346 353 355 358 357 354 348 337 332 325 317 308 301 296 291 286 277 269 260 254 252 248 244 238 235 232 230 229 228
203 206 204 207 215 218 218 231 250 261 267 284 298 317 341 351 355 352 351 352 351 348 343 333 322 315 310 305 301 293 284 272 263 256 251 247 244 240 235 233 233 233 233
205 205 203 208 213 212 210 224 240 258 269 278 294 315 332 345 356 355 356 354 353 349 341 334 329 323 316 311 306 299 289 278 269 258 250 247 245 242 238 237 235 234 235
206 205 208 210 207 206 208 220 239 267 274 283 296 311 328 344 352 353 357 358 352 347 344 337 334 331 321 314 308 301 291 282 274 260 250 245 242 241 240 240 237 236 235
209 209 211 203 206 208 207 217 238 269 280 304 321 317 315 333 346 353 2 2 357 352 349 346 341 336 330 325 318 309 296 287 276 269 252 246 243 241 241 241 239 237 236
208 205 203 204 209 209 207 217 230 250 264 283 313 310 309 327 350 6 7 8 5 360 353 348 344 338 332 327 320 313 304 292 272 264 255 249 247 245 243 241 240 238 238
208 203 203 204 208 213 212 218 226 236 244 262 286 307 319 346 16 16 17 17 14 7 358 351 346 341 335 327 321 316 306 295 274 260 256 252 247 245 244 243 241 238 239
205 204 207 207 210 214 214 214 221 229 235 257 279 298 332 4 27 20 18 16 11 7 5 1 355 352 349 340 332 320 306 297 279 268 257 253 250 244 245 246 245 241 239
207 209 211 208 213 218 217 214 220 225 232 248 256 274 325 350 18 8 6 7 8 10 8 4 1 357 354 352 347 338 321 309 296 288 271 258 257 254 252 250 246 246 243
207 210 212 212 216 216 213 217 220 223 231 234 234 256 274 295 324 345 352 358 3 5 5 5 1 357 356 356 354 348 337 323 309 300 290 275 267 269 267 261 255 250 247
203 207 208 210 214 213 215 218 221 228 233 232 235 243 257 273 295 321 338 349 355 357 1 2 360 358 358 357 354 348 342 336 322 312 303 293 286 284 279 271 265 259 255
205 209 207 208 211 215 215 219 223 228 229 232 233 240 254 265 282 306 327 340 348 350 353 359 0 1 2 359 354 348 342 333 325 318 310 299 294 293 286 278 273 265 262
208 210 210 211 213 219 220 223 225 227 227 226 227 234 246 255 278 300 318 331 338 339 341 344 351 353 355 354 350 348 342 333 324 320 315 308 303 299 292 283 276 273 271
211 216 220 216 218 221 223 225 226 227 225 224 230 237 243 251 276 297 310 321 329 332 333 335 343 345 345 347 342 339 336 333 326 320 313 307 304 303 297 289 281 278 275
217 221 226 226 224 225 226 228 229 226 223 224 233 241 245 251 268 287 300 311 320 327 330 332 337 341 340 342 342 337 334 330 327 321 314 309 306 304 300 293 288 284 278
222 225 229 233 228 229 230 231 233 230 228 228 237 243 244 249 264 279 293 303 309 317 322 327 330 336 337 334 334 328 323 324 322 321 316 313 311 308 303 296 292 288 286
Height
5897 5896 5896 5896 5896 5896 5896 5897 5896 5896 5896 5896 5896 5895 5895 5895 5895 5895 5894 5894 5894 5893 5893 5893 5893 5893 5893 5893 5893 5893 5893 5893 5894 5894 5894 5895 5895 5896 5896 5896 5897 5897 5897
5897 5897 5896 5896 5897 5897 5897 5897 5897 5897 5896 5896 5896 5895 5895 5895 5895 5894 5894 5894 5893 5893 5893 5893 5893 5892 5892 5892 5892 5892 5892 5892 5893 5893 5894 5894 5894 5895 5895 5896 5896 5896 5896
5897 5897 5896 5897 5897 5897 5897 5897 5897 5897 5896 5896 5896 5896 5895 5895 5894 5894 5894 5893 5893 5893 5892 5892 5892 5892 5892 5891 5891 5891 5891 5891 5892 5892 5893 5893 5893 5894 5894 5895 5895 5895 5895
5896 5897 5896 5897 5897 5897 5897 5897 5897 5897 5897 5896 5896 5896 5895 5895 5894 5894 5893 5893 5892 5892 5891 5891 5891 5891 5891 5891 5891 5890 5890 5890 5891 5891 5891 5892 5892 5893 5893 5894 5894 5894 5895
5896 5896 5897 5897 5897 5897 5897 5897 5897 5897 5897 5896 5896 5896 5895 5895 5894 5893 5893 5892 5891 5891 5890 5890 5890 5890 5890 5890 5890 5889 5889 5889 5890 5890 5890 5890 5891 5892 5892 5893 5893 5893 5894
5896 5896 5896 5897 5897 5897 5897 5897 5897 5897 5897 5896 5896 5896 5895 5894 5894 5893 5892 5892 5891 5890 5890 5889 5889 5889 5889 5889 5889 5888 5888 5888 5888 5889 5889 5889 5890 5890 5891 5891 5892 5892 5893
5895 5896 5896 5897 5897 5897 5897 5897 5897 5897 5897 5896 5896 5895 5895 5894 5893 5893 5892 5891 5890 5890 5889 5889 5888 5888 5888 5888 5888 5887 5887 5887 5887 5887 5887 5888 5888 5888 5889 5890 5891 5892 5892
5895 5895 5896 5896 5897 5897 5897 5897 5896 5896 5896 5896 5896 5895 5895 5894 5893 5892 5891 5890 5890 5889 5889 5888 5888 5887 5887 5887 5886 5886 5886 5886 5886 5886 5886 5886 5885 5884 5886 5888 5890 5890 5891
5894 5895 5895 5896 5896 5897 5897 5897 5896 5896 5896 5896 5896 5895 5895 5894 5893 5892 5891 5890 5889 5888 5888 5887 5887 5886 5886 5885 5885 5885 5885 5885 5885 5885 5885 5885 5885 5885 5886 5887 5888 5889 5890
5893 5894 5895 5895 5896 5896 5896 5896 5896 5896 5896 5896 5896 5895 5894 5894 5893 5892 5891 5890 5889 5888 5887 5886 5886 5885 5885 5884 5884 5884 5883 5883 5883 5883 5883 5883 5883 5884 5884 5885 5886 5887 5888
5892 5893 5894 5895 5895 5895 5896 5896 5896 5896 5896 5896 5895 5895 5894 5894 5893 5891 5890 5889 5888 5887 5886 5886 5885 5884 5884 5883 5883 5882 5882 5882 5882 5882 5882 5882 5882 5882 5883 5884 5885 5886 5886
5892 5893 5893 5894 5895 5895 5895 5895 5895 5895 5895 5895 5895 5894 5894 5893 5892 5891 5890 5889 5888 5887 5886 5885 5884 5884 5883 5882 5882 5881 5881 5880 5880 5880 5880 5880 5880 5881 5881 5882 5883 5884 5884
5890 5892 5893 5893 5894 5894 5895 5895 5895 5895 5895 5895 5894 5894 5893 5893 5892 5891 5890 5889 5888 5887 5886 5885 5884 5883 5882 5881 5881 5880 5879 5879 5879 5878 5878 5878 5879 5879 5879 5880 5881 5881 5882
5890 5891 5892 5893 5893 5894 5894 5895 5895 5895 5895 5894 5894 5893 5893 5893 5892 5891 5890 5889 5888 5887 5885 5884 5883 5882 5881 5880 5879 5879 5878 5877 5877 5877 5877 5877 5877 5877 5878 5878 5879 5879 5880
5888 5890 5891 5891 5892 5893 5894 5894 5894 5894 5894 5894 5893 5893 5893 5892 5892 5891 5890 5889 5888 5886 5885 5884 5882 5881 5880 5879 5879 5878 5877 5876 5875 5875 5875 5875 5875 5876 5876 5876 5877 5877 5878
5887 5888 5889 5891 5891 5892 5893 5893 5894 5894 5894 5894 5893 5893 5893 5892 5891 5891 5890 5889 5887 5886 5885 5883 5882 5881 5880 5879 5878 5877 5876 5875 5874 5874 5874 5874 5874 5874 5874 5875 5875 5876 5876
5886 5888 5888 5890 5891 5892 5892 5893 5893 5893 5893 5893 5893 5893 5892 5892 5891 5890 5890 5888 5887 5886 5884 5883 5882 5880 5879 5878 5877 5876 5875 5874 5873 5873 5872 5872 5872 5873 5873 5873 5874 5874 5874
5885 5886 5888 5889 5890 5891 5892 5892 5892 5893 5893 5893 5893 5892 5892 5891 5891 5890 5890 5888 5887 5886 5884 5883 5881 5880 5879 5878 5876 5875 5874 5873 5872 5872 5871 5871 5871 5871 5872 5872 5872 5872 5873
5884 5885 5887 5888 5889 5890 5890 5891 5892 5892 5892 5892 5892 5892 5892 5891 5891 5890 5889 5888 5887 5886 5884 5883 5881 5880 5879 5877 5876 5875 5874 5873 5872 5871 5871 5870 5870 5870 5870 5870 5871 5871 5871
5883 5884 5886 5887 5888 5889 5890 5890 5891 5892 5892 5892 5891 5891 5891 5891 5890 5890 5889 5888 5887 5886 5884 5883 5881 5880 5879 5877 5876 5874 5873 5872 5871 5870 5870 5870 5870 5870 5869 5869 5869 5869 5869
5882 5883 5885 5886 5887 5888 5889 5889 5890 5891 5891 5891 5891 5891 5891 5890 5890 5890 5889 5887 5886 5885 5884 5883 5881 5880 5878 5877 5876 5874 5873 5872 5871 5870 5869 5869 5869 5869 5868 5868 5868 5867 5868
5881 5883 5884 5885 5886 5887 5888 5888 5889 5890 5890 5890 5890 5890 5890 5890 5890 5889 5888 5887 5886 5885 5884 5883 5881 5880 5878 5877 5876 5874 5873 5872 5871 5870 5869 5868 5868 5867 5867 5866 5866 5866 5866
5880 5882 5883 5884 5885 5886 5887 5887 5888 5888 5889 5889 5889 5889 5889 5889 5889 5888 5888 5887 5886 5885 5883 5882 5881 5880 5878 5877 5876 5875 5873 5872 5870 5870 5869 5868 5867 5866 5866 5865 5865 5864 5864
5879 5880 5882 5883 5884 5884 5885 5886 5887 5887 5887 5888 5888 5888 5888 5888 5888 5888 5887 5886 5885 5884 5883 5882 5881 5879 5878 5877 5875 5874 5873 5871 5870 5869 5869 5867 5866 5866 5865 5864 5863 5862 5862
5878 5879 5880 5881 5882 5883 5884 5885 5885 5886 5886 5887 5887 5887 5887 5887 5887 5887 5886 5885 5884 5883 5882 5881 5880 5879 5877 5876 5875 5874 5872 5871 5870 5869 5868 5867 5866 5865 5863 5862 5861 5860 5860
5877 5878 5879 5880 5881 5882 5882 5883 5884 5884 5885 5885 5886 5886 5886 5886 5886 5885 5885 5884 5883 5882 5882 5881 5879 5878 5877 5876 5874 5873 5872 5871 5869 5868 5867 5866 5864 5863 5862 5861 5860 5859 5858